Weather in Poselok Kurort Ozero

Russia / Kurgan Oblast     55°08′06″N   62°32′04″E
temp.,
°C
wind,
m/s
gust,
m/s
humid.,
%
clouds,
%
prec.,
mm/h
press.,
hPa
HPBL,
m
16 may, mon
mon1623:00+11s4878100 0.0 1005186
02:00+11ssw3784100 0.1 1004147
05:00+11ssw129099 0.3 100221
08:00+12s2485100 0.7 1000181
11:00+11w2290100 2.1 1000120
14:00+13wsw357452 0.1 998573
17:00+16w675944 0.5 9981225
20:00+13wsw497629 0.5 998517
17 may, tue
tue1723:00+9wsw35917 0.6 999118
02:00+8wsw349238 0.0 99977
05:00+8sw4791100 0.0 999198
08:00+10wsw5979100 0.1 1000484
11:00+14w796081 0.4 10011486
14:00+16wsw795167 0.3 10021853
17:00+15sw375680 0.3 1002180
20:00+14s335871 0.0 100341
18 may, wed
wed1823:00+11ssw410665 0.0 1004202
02:00+9sw4980100 0.0 1004204
05:00+8wsw3587100 0.0 1005115
08:00+12sw466494 0.0 1006438
11:00+16ssw684459 0.0 10051921
14:00+16ssw6845100 0.0 10031812
17:00+13wsw896795 0.4 1003813
20:00+11ssw47784 0.5 1003365
19 may, thu
thu1923:00+8ssw410835 0.5 1002179
02:00+7sw5118378 0.0 1002277
05:00+6sw511896 0.0 1002289
08:00+9wsw687292 0.0 1003523
11:00+13wsw7951100 0.1 10031866
14:00+11wsw696668 0.5 10051116
17:00+13wnw795058 0.6 10051588
20:00+10wnw59636 0.0 1007480
20 may, fri
fri2023:00+6wnw22825 0.0 100821
02:00+4wsw22840 0.0 100925
05:00+4s227696 0.0 100815
08:00+9s3659100 0.0 1008430
11:00+11wsw1457100 0.0 10071002
14:00+8n3588100 1.7 1007211
17:00+11ne227299 1.8 1006487
20:00+10ene227861 0.0 100537